Latest Weather Observations for Terrey Hills

IDN60801

Issued at 3:03 pm EST Monday 6 July 2015 (issued every 30 minutes, with the page automatically refreshed every 10 minutes)

About weather observations | Map of weather stations | Latest weather observations for NSW | Other Formats
Station Details ID: 066059 Name: TERREY HILLS AWS Lat: -33.69 Lon: 151.23 Height: 199.0 m
Data from the previous 72 hours. | See also: Recent months at Terrey Hills
Date/Time
EST
Temp
°C
App
Temp
°C
Dew
Point
Rel
Hum
%
Delta-T
°C
Wind Press
QNH
hPa
Press
MSL
hPa
Rain
since 9 am
mm
Dir
 
Spd
km/h
Gust
km/h
Spd
kts
Gust
kts
06/03:00pm 14.3 10.6 -0.2 37 6.1 WNW 9 19 5 10 - - 0.0
06/02:30pm 14.6 10.5 -0.3 36 6.3 WNW 11 20 6 11 - - 0.0
06/02:00pm 14.8 11.1 -0.1 36 6.3 WNW 9 20 5 11 - - 0.0
06/01:30pm 14.1 9.5 -1.1 35 6.3 W 13 20 7 11 - - 0.0
06/01:00pm 14.2 10.3 -1.4 34 6.4 WNW 9 17 5 9 - - 0.0
06/12:30pm 13.9 10.1 -0.5 37 6.0 W 9 17 5 9 - - 0.0
06/12:00pm 13.4 9.6 -1.0 37 5.9 WNW 9 17 5 9 - - 0.0
06/11:30am 12.9 9.4 -1.1 38 5.7 W 7 15 4 8 - - 0.0
06/11:00am 12.3 9.2 0.4 44 5.0 WNW 6 11 3 6 - - 0.0
06/10:30am 11.7 8.0 -0.1 44 4.9 WNW 9 17 5 9 - - 0.0
06/10:00am 10.8 7.4 -0.6 45 4.6 WNW 7 11 4 6 - - 0.0
06/09:30am 9.7 6.4 -1.1 47 4.3 W 6 9 3 5 - - 0.0
06/09:00am 8.8 5.4 -2.2 46 4.2 WNW 6 9 3 5 - - 0.0
06/08:30am 7.8 4.2 -2.0 50 3.7 WNW 7 11 4 6 - - 0.0
06/08:00am 6.1 2.5 -2.2 55 3.1 WNW 7 11 4 6 - - 0.0
06/07:30am 5.3 1.6 -3.0 55 3.0 WNW 7 9 4 5 - - 0.0
06/07:00am 4.7 1.0 -3.1 57 2.8 WNW 7 11 4 6 - - 0.0
06/06:30am 4.3 -0.1 -2.5 61 2.4 WNW 11 15 6 8 - - 0.0
06/06:00am 4.7 0.3 -2.8 58 2.7 WNW 11 15 6 8 - - 0.0
06/05:30am 4.7 0.6 -2.8 58 2.7 WNW 9 15 5 8 - - 0.0
06/05:00am 4.5 0.1 -2.4 61 2.5 WNW 11 13 6 7 - - 0.0
06/04:30am 4.5 0.5 -2.4 61 2.5 WNW 9 13 5 7 - - 0.0
06/04:00am 4.7 0.8 -1.7 63 2.4 WNW 9 13 5 7 - - 0.0
06/03:30am 5.2 1.3 -1.5 62 2.5 WNW 9 13 5 7 - - 0.0
06/03:00am 5.6 1.3 -1.3 61 2.6 WNW 11 13 6 7 - - 0.0
06/02:30am 5.8 2.0 -0.9 62 2.5 WNW 9 13 5 7 - - 0.0
06/02:00am 6.1 1.9 -0.6 62 2.6 WNW 11 15 6 8 - - 0.0
06/01:30am 5.9 1.9 0.5 68 2.1 WNW 11 15 6 8 - - 0.0
06/01:00am 6.4 2.0 0.5 66 2.3 W 13 17 7 9 - - 0.0
06/12:30am 6.7 2.4 1.0 67 2.3 WNW 13 15 7 8 - - 0.0
06/12:00am 7.3 3.4 1.4 66 2.4 WNW 11 15 6 8 - - 0.0
 
Date/Time
EST
Temp
°C
App
Temp
°C
Dew
Point
Rel
Hum
%
Delta-T
°C
Wind Press
QNH
hPa
Press
MSL
hPa
Rain
since 9 am
mm
Dir
 
Spd
km/h
Gust
km/h
Spd
kts
Gust
kts
05/11:30pm 7.2 4.2 1.9 69 2.2 WNW 7 11 4 6 - - 0.0
05/11:00pm 7.8 4.9 2.5 69 2.2 WNW 7 13 4 7 - - 0.0
05/10:30pm 8.7 5.5 3.3 69 2.3 WNW 9 17 5 9 - - 0.0
05/10:00pm 9.4 6.8 4.2 70 2.3 NW 7 11 4 6 - - 0.0
05/09:30pm 10.1 7.7 4.3 67 2.6 NW 6 9 3 5 - - 0.0
05/09:00pm 11.8 9.3 3.8 58 3.6 N 6 9 3 5 - - 0.0
05/08:30pm 12.4 9.7 3.9 56 3.9 N 7 9 4 5 - - 0.0
05/08:00pm 12.4 9.8 3.4 54 4.0 NNE 6 9 3 5 - - 0.0
05/07:30pm 12.0 9.8 3.3 55 3.9 NNE 4 6 2 3 - - 0.0
05/07:00pm 11.1 9.7 3.6 60 3.3 CALM 0 4 0 2 - - 0.0
05/06:30pm 11.6 10.2 3.4 57 3.7 CALM 0 4 0 2 - - 0.0
05/06:00pm 12.3 10.9 3.3 54 4.0 CALM 0 0 0 0 - - 0.0
05/05:30pm 12.0 10.5 3.0 54 4.0 CALM 0 0 0 0 - - 0.0
05/05:00pm 12.0 10.4 2.7 53 4.1 CALM 0 0 0 0 - - 0.0
05/04:30pm 13.3 10.4 2.5 48 4.8 NNW 7 9 4 5 - - 0.0
05/04:00pm 14.3 11.5 2.2 44 5.4 NNW 6 11 3 6 - - 0.0
05/03:30pm 15.5 13.0 3.6 45 5.5 NNW 6 9 3 5 - - 0.0
05/03:00pm 15.4 12.6 2.9 43 5.7 N 7 11 4 6 - - 0.0
05/02:30pm 16.4 14.4 2.4 39 6.4 N 2 6 1 3 - - 0.0
05/02:00pm 16.3 13.7 0.8 35 6.8 NNW 4 9 2 5 - - 0.0
05/01:30pm 16.6 13.7 -1.0 30 7.5 NNW 4 7 2 4 - - 0.0
05/01:00pm 15.8 13.4 0.0 34 6.8 NW 2 7 1 4 - - 0.0
05/12:30pm 15.5 13.2 0.1 35 6.6 NW 2 6 1 3 - - 0.0
05/12:00pm 15.1 12.1 0.9 38 6.2 N 6 7 3 4 - - 0.0
05/11:30am 14.2 11.9 2.5 45 5.2 WNW 4 6 2 3 - - 0.0
05/11:00am 13.8 11.4 2.4 46 5.1 WNW 4 7 2 4 - - 0.0
05/10:30am 12.8 10.2 3.2 52 4.3 NW 6 11 3 6 - - 0.0
05/10:00am 10.4 7.2 3.2 61 3.2 WNW 9 11 5 6 - - 0.0
05/09:30am 8.8 5.6 3.2 68 2.4 WNW 9 13 5 7 - - 0.0
05/09:00am 7.2 3.6 2.9 74 1.8 WNW 11 13 6 7 - - 0.0
05/08:30am 5.8 1.8 3.0 82 1.2 WNW 13 17 7 9 - - 0.0
05/08:00am 4.9 1.7 2.8 86 0.9 WNW 9 13 5 7 - - 0.0
05/07:30am 3.6 0.3 2.6 93 0.4 WNW 9 13 5 7 - - 0.0
05/07:00am 3.3 0.0 2.3 93 0.4 WNW 9 11 5 6 - - 0.0
05/06:30am 4.0 0.3 2.4 89 0.6 WNW 11 13 6 7 - - 0.0
05/06:00am 4.3 0.2 2.5 88 0.7 WNW 13 15 7 8 - - 0.0
05/05:30am 4.3 0.6 2.5 88 0.7 WNW 11 15 6 8 - - 0.0
05/05:00am 4.3 0.3 2.7 89 0.7 WNW 13 15 7 8 - - 0.0
05/04:30am 3.9 -0.1 2.6 91 0.5 WNW 13 15 7 8 - - 0.0
05/04:00am 3.7 -0.4 2.4 91 0.5 WNW 13 15 7 8 - - 0.0
05/03:30am 4.0 -0.1 2.5 90 0.6 W 13 17 7 9 - - 0.0
05/03:00am 4.2 -0.2 2.6 89 0.7 W 15 19 8 10 - - 0.0
05/02:30am 4.2 0.1 2.4 88 0.7 W 13 19 7 10 - - 0.0
05/02:00am 4.3 0.2 2.5 88 0.7 W 13 17 7 9 - - 0.0
05/01:30am 4.2 0.1 2.4 88 0.7 W 13 19 7 10 - - 0.0
05/01:00am 4.5 0.4 2.4 86 0.9 W 13 17 7 9 - - 0.0
05/12:30am 5.4 0.9 2.2 80 1.3 W 15 19 8 10 - - 0.0
05/12:00am 5.9 1.4 2.2 77 1.5 W 15 19 8 10 - - 0.0
 
Date/Time
EST
Temp
°C
App
Temp
°C
Dew
Point
Rel
Hum
%
Delta-T
°C
Wind Press
QNH
hPa
Press
MSL
hPa
Rain
since 9 am
mm
Dir
 
Spd
km/h
Gust
km/h
Spd
kts
Gust
kts
04/11:30pm 6.8 2.3 2.1 72 1.9 W 15 22 8 12 - - 0.0
04/11:00pm 6.3 1.8 2.4 76 1.6 WSW 15 26 8 14 - - 0.0
04/10:30pm 6.5 2.8 2.2 74 1.8 W 11 15 6 8 - - 0.0
04/10:00pm 7.9 4.5 2.0 66 2.5 W 9 13 5 7 - - 0.0
04/09:30pm 8.5 5.5 2.1 64 2.7 W 7 9 4 5 - - 0.0
04/09:00pm 8.8 5.5 2.4 64 2.7 WSW 9 11 5 6 - - 0.0
04/08:30pm 7.5 4.8 2.6 71 2.1 WSW 6 7 3 4 - - 0.0
04/08:00pm 8.3 6.0 2.5 67 2.5 SW 4 6 2 3 - - 0.0
04/07:30pm 9.3 7.8 2.9 64 2.8 CALM 0 0 0 0 - - 0.0
04/07:00pm 9.4 7.8 2.7 63 2.9 CALM 0 2 0 1 - - 0.0
04/06:30pm 10.2 7.4 2.3 58 3.4 S 6 7 3 4 - - 0.0
04/06:00pm 10.5 8.6 0.3 49 4.2 CALM 0 6 0 3 - - 0.0
04/05:30pm 10.3 7.9 -0.5 47 4.4 S 2 4 1 2 - - 0.0
04/05:00pm 10.9 7.7 -0.5 45 4.6 SSW 6 6 3 3 - - 0.0
04/04:30pm 12.2 9.8 0.0 43 5.1 W 2 2 1 1 - - 0.0
04/04:00pm 13.2 10.4 -0.4 39 5.7 SW 4 7 2 4 - - 0.0
04/03:30pm 13.1 9.2 -1.2 37 5.8 SW 9 13 5 7 - - 0.0
04/03:00pm 13.4 9.5 -1.3 36 6.0 SSW 9 13 5 7 - - 0.0
04/02:30pm 13.2 9.7 -1.5 36 6.0 SSW 7 15 4 8 - - 0.0
04/02:00pm 14.2 10.5 -2.7 31 6.7 SW 7 13 4 7 - - 0.0
04/01:30pm 14.2 10.4 -3.6 29 7.0 WNW 7 13 4 7 - - 0.0
04/01:00pm 13.3 9.2 -3.0 32 6.4 W 9 15 5 8 - - 0.0
04/12:30pm 13.3 10.1 -0.3 39 5.7 W 6 11 3 6 - - 0.0
04/12:00pm 12.8 8.9 -1.5 37 5.8 WNW 9 19 5 10 - - 0.0
04/11:30am 11.8 8.4 -0.4 43 5.0 WNW 7 15 4 8 - - 0.0
04/11:00am 10.7 8.0 3.7 62 3.1 WNW 7 13 4 7 - - 0.0
04/10:30am 9.5 6.5 3.9 68 2.5 W 9 15 5 8 - - 0.0
04/10:00am 7.7 4.2 3.7 76 1.7 W 11 19 6 10 - - 0.0
04/09:30am 7.6 4.7 4.4 80 1.4 WNW 9 17 5 9 - - 0.0
04/09:00am 5.9 2.7 3.2 83 1.1 WNW 9 17 5 9 - - 0.0
04/08:30am 5.0 2.2 3.2 88 0.8 W 7 13 4 7 - - 0.0
04/08:00am 3.7 0.5 3.0 95 0.3 WNW 9 13 5 7 - - 0.0
04/07:30am 2.9 -0.1 2.2 95 0.3 WNW 7 9 4 5 - - 0.0
04/07:00am 3.1 0.1 2.2 94 0.4 WNW 7 9 4 5 - - 0.0
04/06:30am 3.5 -0.1 3.2 98 0.1 NW 11 17 6 9 - - 0.0
04/06:00am 3.2 0.0 3.1 99 0.0 WNW 9 15 5 8 - - 0.0
04/05:30am 3.2 0.4 3.1 99 0.0 WNW 7 13 4 7 - - 0.0
04/05:00am 4.3 1.8 4.0 98 0.1 WNW 6 9 3 5 - - 0.0
04/04:30am 5.0 2.5 4.9 99 0.0 NW 7 13 4 7 - - 0.0
04/04:00am 4.3 1.9 4.2 99 0.0 WNW 6 7 3 4 - - 0.0
04/03:30am 4.5 1.5 4.2 98 0.1 WNW 9 11 5 6 - - 0.0
04/03:00am 5.1 2.2 4.7 97 0.2 W 9 11 5 6 - - 0.0
04/02:30am 5.5 2.6 4.8 95 0.3 WNW 9 11 5 6 - - 0.0
04/02:00am 5.8 3.4 5.2 96 0.3 WNW 7 9 4 5 - - 0.0
04/01:30am 5.7 3.3 5.1 96 0.3 WNW 7 7 4 4 - - 0.0
04/01:00am 5.5 3.0 4.8 95 0.3 WNW 7 9 4 5 - - 0.0
04/12:30am 6.1 3.6 4.9 92 0.5 W 7 9 4 5 - - 0.0
04/12:00am 7.3 4.8 5.0 85 1.0 W 7 9 4 5 - - 0.0
 
Date/Time
EST
Temp
°C
App
Temp
°C
Dew
Point
Rel
Hum
%
Delta-T
°C
Wind Press
QNH
hPa
Press
MSL
hPa
Rain
since 9 am
mm
Dir
 
Spd
km/h
Gust
km/h
Spd
kts
Gust
kts
03/11:30pm 7.6 5.3 4.7 82 1.3 W 6 6 3 3 - - 0.0
03/11:00pm 8.1 6.2 4.9 80 1.4 WSW 4 4 2 2 - - 0.0
03/10:30pm 8.2 7.0 4.8 79 1.5 CALM 0 0 0 0 - - 0.0
03/10:00pm 8.0 6.8 4.8 80 1.4 CALM 0 0 0 0 - - 0.0
03/09:30pm 8.3 7.2 4.9 79 1.5 CALM 0 0 0 0 - - 0.0
03/09:00pm 8.0 6.8 4.6 79 1.5 CALM 0 0 0 0 - - 0.0
03/08:30pm 8.5 7.0 4.9 78 1.6 SW 2 2 1 1 - - 0.0
03/08:00pm 9.1 7.1 4.5 73 2.1 SSW 4 4 2 2 - - 0.0
03/07:30pm 9.7 8.1 4.5 70 2.3 SSW 2 4 1 2 - - 0.0
03/07:00pm 9.9 8.6 4.3 68 2.5 CALM 0 0 0 0 - - 0.0
03/06:30pm 9.8 7.8 4.6 70 2.3 S 4 6 2 3 - - 0.0
03/06:00pm 9.9 8.0 5.1 72 2.2 S 4 7 2 4 - - 0.0
03/05:30pm 9.8 8.3 5.0 72 2.2 S 2 7 1 4 - - 0.0
03/05:00pm 9.9 8.4 5.1 72 2.2 SSE 2 6 1 3 - - 0.0
03/04:30pm 10.6 8.8 5.2 69 2.5 SSE 4 9 2 5 - - 0.0
03/04:00pm 11.5 9.2 4.7 63 3.1 SSE 6 9 3 5 - - 0.0
03/03:30pm 12.3 10.0 4.8 60 3.5 S 6 11 3 6 - - 0.0

Other Formats:

Comma delimited format used in spreadsheet applications
http://www.bom.gov.au/fwo/IDN60801/IDN60801.94759.axf

JavaScript Object Notation format (JSON) in row-major order
http://www.bom.gov.au/fwo/IDN60801/IDN60801.94759.json